Location: Laterina
(43.5167°N, 11.7167°E)
Time: 21:54:37
(UTC+00:00)

Cosmos 1125 Rocket - Pass Details

Date: 19 June 2021
Orbit: 757 x 780 km, 74.0° (Epoch: 28 July)

Event Time Altitude Azimuth Distance (km) Brightness Sun altitude
Rises 00:00:38 0° 356° (N) 3,242 8.1 -22.2°
Reaches altitude 10° 00:05:11 10° 32° (NNE) 2,317 7.0 -22.1°
Maximum altitude 00:06:33 11° 47° (NE) 2,253 6.7 -22.0°
Drops below altitude 10° 00:07:55 10° 63° (ENE) 2,318 6.5 -21.9°
Sets 00:12:27 0° 99° (E) 3,246 6.8 -21.7°
